EW4806 Weather Reports


Display with metric or nautical units.
time (UTC)temp
F
wind
direction
speed
MPH
gust
MPH
rain 1hr
in
rain 24hr
in
rain mn
in
humidity
%
barometer
mb
20260903233557 65 197 1.0 11.0 0.00 0.30 0.01 46 1011.0
20260903232055 64 249 1.0 4.0 0.00 0.32 0.01 48 1011.1
20260903230552 64 221 1.0 7.0 0.00 0.34 0.01 48 1011.3
20260903225050 65 187 1.0 4.0 0.00 0.36 0.01 47 1011.4
20260903223549 63 166 1.0 9.0 0.01 0.37 0.01 50 1011.4
20260903222046 62 197 1.0 5.0 0.01 0.40 0.01 58 1011.6
20260903220543 61 177 1.0 6.0 0.01 0.42 0.01 60 1011.7
20260903215736 63 286 1.0 5.0 0.01 0.44 0.01 53 1011.6
20260903213543 64 291 0.0 2.0 0.00 0.45 0.00 52 1011.4
20260903212042 64 243 0.0 3.0 0.00 0.47 0.00 52 1011.5
20260903210543 63 141 0.0 1.0 0.00 0.49 0.00 57 1011.4
20260903205042 61 113 0.0 2.0 0.00 0.51 0.00 63 1011.5
20260903203544 59 112 0.0 1.0 0.00 0.54 0.00 72 1011.8
20260903203435 59 305 0.0 0.0 0.00 0.57 0.00 75 1011.9
20260903200541 58 305 0.0 1.0 0.00 0.59 0.00 75 1012.0
20260903195039 58 278 0.0 1.0 0.00 0.61 0.00 78 1012.1
20260903194225 58 278 0.0 1.0 0.00 0.62 0.00 79 1012.2
20260903192035 57 278 0.0 1.0 0.00 0.63 0.00 81 1012.3
20260903191237 57 287 0.0 0.0 0.00 0.64 0.00 82 1012.5
20260903185729 57 308 0.0 0.0 0.00 0.65 0.00 83 1012.5
20260903183532 56 280 0.0 0.0 0.00 0.66 0.00 83 1012.4
20260903182033 56 280 0.0 0.0 0.00 0.66 0.00 83 1012.5
20260903180533 56 270 0.0 1.0 0.00 0.67 0.00 83 1012.4
20260903175731 55 270 0.0 0.0 0.00 0.69 0.00 84 1012.4
20260903173532 55 270 0.0 0.0 0.00 0.69 0.00 85 1012.4
20260903172726 55 270 0.0 2.0 0.00 0.69 0.00 85 1012.4
20260903170531 55 288 0.0 1.0 0.00 0.70 0.00 85 1012.4
20260903165030 55 290 0.0 1.0 0.00 0.70 0.00 85 1012.5
20260903163530 55 289 0.0 0.0 0.00 0.70 0.00 86 1012.7
20260903162031 54 284 0.0 0.0 0.00 0.70 0.00 87 1012.8
20260903160530 54 100 0.0 0.0 0.00 0.70 0.00 87 1013.0
20260903155030 53 79 0.0 0.0 0.00 0.70 0.00 87 1013.2
20260903153530 53 287 0.0 0.0 0.00 0.70 0.00 87 1013.4
20260903152027 53 359 0.0 0.0 0.00 0.70 0.00 87 1013.4
20260903150529 52 283 0.0 0.0 0.00 0.70 0.00 87 1013.3
20260903145026 52 283 0.0 0.0 0.00 0.70 0.00 87 1013.2
20260903144215 52 283 0.0 0.0 0.00 0.70 0.00 87 1013.0
20260903142733 52 359 0.0 0.0 0.00 0.70 0.00 87 1013.0
20260903140522 52 301 0.0 0.0 0.00 0.70 0.00 87 1013.0
20260903135021 52 359 0.0 0.0 0.00 0.70 0.00 87 1012.8
20260903133518 52 301 0.0 0.0 0.00 0.70 0.00 87 1012.7
20260903132018 52 300 0.0 0.0 0.00 0.70 0.00 87 1012.7
20260903130516 52 129 0.0 0.0 0.00 0.70 0.00 87 1012.8
20260903125016 52 124 0.0 0.0 0.00 0.70 0.00 87 1012.7
20260903124219 52 126 0.0 0.0 0.00 0.70 0.00 87 1012.8
20260903122016 52 124 0.0 0.0 0.00 0.70 0.00 87 1012.8
20260903120511 52 125 0.0 0.0 0.00 0.70 0.00 87 1012.8
20260903115614 52 98 0.0 0.0 0.00 0.70 0.00 87 1012.8
20260903115030 52 125 0.0 0.0 0.00 0.70 0.00 87 1012.8
20260903112707 52 97 0.0 0.0 0.00 0.70 0.00 87 1012.9
20260903110510 52 13 0.0 0.0 0.00 0.70 0.00 87 1013.1
20260903105009 52 12 0.0 0.0 0.00 0.70 0.00 87 1013.2
20260903104217 52 9 0.0 0.0 0.00 0.70 0.00 87 1013.3
20260903102009 52 149 0.0 0.0 0.00 0.70 0.00 87 1013.3
20260903100508 52 163 0.0 0.0 0.00 0.70 0.00 87 1013.3
20260903095007 52 162 0.0 0.0 0.00 0.70 0.00 87 1013.3
20260903093507 52 162 0.0 0.0 0.00 0.70 0.00 87 1013.3
20260903092008 53 162 0.0 0.0 0.00 0.70 0.00 87 1013.3
20260903091206 53 162 0.0 0.0 0.00 0.70 0.00 87 1013.4
20260903085005 53 163 0.0 0.0 0.00 0.70 0.00 86 1013.4
20260903084203 54 164 0.0 0.0 0.00 0.70 0.00 87 1013.4
20260903082006 54 163 0.0 0.0 0.00 0.70 0.00 87 1013.3
20260903080505 54 163 0.0 0.0 0.00 0.70 0.00 86 1013.2
20260903075003 54 164 0.0 0.0 0.00 0.70 0.00 86 1013.1
20260903073501 54 162 0.0 0.0 0.00 0.70 0.00 86 1013.2
20260903072001 54 164 0.0 0.0 0.00 0.70 0.00 86 1013.2
20260903070501 55 164 0.0 0.0 0.00 0.70 0.00 86 1013.0
20260903065002 55 165 0.0 0.0 0.00 0.70 0.70 86 1013.1
20260903063500 54 164 0.0 0.0 0.01 0.70 0.70 85 1013.0
20260903061959 54 164 0.0 1.0 0.01 0.70 0.70 85 1013.0
20260903060459 55 150 0.0 1.0 0.02 0.70 0.70 86 1013.1
20260903055000 55 125 0.0 1.0 0.02 0.70 0.70 86 1013.2
20260903053501 55 121 0.0 1.0 0.01 0.69 0.69 86 1013.3
20260903052653 55 131 0.0 1.0 0.01 0.69 0.69 86 1013.2
20260903050501 55 359 0.0 1.0 0.01 0.68 0.68 85 1013.2
20260903045000 55 270 0.0 2.0 0.02 0.68 0.68 84 1013.1
20260903043458 56 319 1.0 3.0 0.02 0.68 0.68 84 1012.9
20260903041957 57 359 1.0 2.0 0.03 0.68 0.68 85 1012.6
20260903040456 57 222 0.0 0.0 0.03 0.67 0.67 86 1012.4
20260903034954 57 222 0.0 0.0 0.03 0.66 0.67 86 1012.1
20260903034152 57 221 0.0 1.0 0.04 0.66 0.66 86 1012.0
20260903031949 57 97 0.0 1.0 0.05 0.65 0.65 87 1011.9
20260903030447 57 98 0.0 1.0 0.05 0.64 0.64 87 1011.7
20260903024947 57 95 0.0 1.0 0.05 0.63 0.63 87 1011.6
20260903023447 57 96 0.0 0.0 0.06 0.62 0.62 87 1011.6
20260903021948 57 75 0.0 0.0 0.06 0.60 0.61 87 1011.7
20260903021157 57 73 0.0 0.0 0.07 0.59 0.59 86 1011.8
20260903014945 57 331 0.0 0.0 0.08 0.58 0.58 86 1011.8
20260903013449 57 116 0.0 1.0 0.08 0.56 0.56 86 1011.8
20260903011944 57 24 0.0 0.0 0.08 0.54 0.54 86 1011.6
20260903010443 57 23 0.0 1.0 0.08 0.52 0.52 86 1011.5
20260903004943 57 156 0.0 1.0 0.08 0.50 0.50 86 1011.4
20260903003442 57 359 0.0 1.0 0.07 0.48 0.48 86 1011.6
20260903001941 56 354 0.0 0.0 0.07 0.46 0.46 85 1011.2
20260903000439 57 359 0.0 0.0 0.07 0.44 0.44 85 1011.2
20260902235644 57 354 0.0 0.0 0.07 0.42 0.42 85 1011.3